Theta_e
312 312 311 311 311 311 311 312 312 313 314 315 315 315 315 315 315 315 315 315 314 314 314 313 313 313 312 312 312 313 313 312 312 313 312 312 311 311 311 312 312 312 312 312 312 312 311 309 309 309 308 307 306 305 304 304 303 302 301 301 300 300 298 298 297 292 289 290 290 289 289 288 287 287 287 287 287 286 286 285 285 285 285 285 285
312 312 311 311 311 311 311 311 311 312 313 313 313 314 314 314 314 314 314 314 314 313 313 312 312 312 311 312 312 313 313 312 312 312 311 311 311 311 311 311 311 311 311 311 311 311 310 309 309 309 308 306 305 305 304 303 303 302 301 301 300 299 298 297 296 291 288 288 287 287 288 287 287 287 287 287 286 286 285 286 286 285 285 286 287
312 312 311 311 311 311 311 311 311 311 311 312 312 312 313 313 313 313 313 313 313 312 312 312 311 311 311 311 311 312 313 312 312 312 311 311 310 310 310 310 310 311 311 311 311 310 310 309 309 308 307 305 304 304 304 303 303 302 301 301 299 298 297 296 295 292 288 287 287 287 287 286 287 287 286 286 286 286 286 286 286 286 286 287 288
311 311 311 311 311 311 311 311 311 311 311 311 311 311 311 312 312 313 313 313 313 312 312 311 310 310 310 311 311 311 312 311 311 311 311 310 310 310 310 309 309 309 309 310 310 309 309 308 308 308 306 305 304 303 303 303 303 302 300 299 298 297 296 295 294 293 290 287 287 287 287 287 287 286 286 286 286 286 286 286 286 287 288 288 288
309 310 310 310 311 311 311 311 311 311 311 311 311 311 311 311 311 312 312 312 312 312 311 310 310 310 310 310 311 310 310 310 310 309 310 310 309 309 309 309 309 308 308 308 308 308 308 308 308 307 306 304 303 303 303 302 302 300 299 298 297 296 295 293 293 293 292 290 287 286 286 286 286 286 287 287 287 286 287 287 288 288 288 288 288
308 309 309 309 310 310 311 311 311 311 311 311 311 311 311 311 311 311 311 312 312 312 311 310 310 310 310 310 310 310 310 309 308 308 309 309 308 308 308 308 308 308 307 307 306 306 307 307 307 307 306 304 303 303 302 301 300 298 298 297 296 295 293 292 292 293 293 291 287 286 285 285 286 287 287 288 287 287 288 288 288 288 288 288 287
309 309 309 308 309 310 310 310 310 310 310 310 311 310 311 310 310 310 310 310 311 311 311 310 310 309 309 309 309 309 309 308 307 307 307 308 307 307 308 308 308 307 306 306 305 305 305 306 306 305 305 304 304 303 302 300 298 297 297 296 294 293 292 291 291 291 290 288 286 285 285 286 287 287 287 288 288 288 289 288 288 288 287 287 286
309 309 308 308 309 310 310 310 310 310 310 310 310 310 310 310 310 309 309 309 309 310 310 310 309 309 308 308 308 308 308 307 306 306 306 307 307 307 307 307 306 306 306 305 304 304 304 304 304 304 304 304 303 303 302 300 297 295 294 294 293 292 290 289 289 288 287 286 285 285 286 286 287 287 287 288 288 288 288 288 288 287 286 285 285
309 309 308 309 309 309 309 309 308 308 309 309 309 309 309 309 309 308 308 309 309 309 310 310 309 308 308 308 307 307 307 307 306 305 305 306 306 306 306 306 305 305 305 304 303 302 302 302 302 302 303 303 302 302 301 300 298 296 293 292 291 290 288 287 287 286 286 286 286 286 286 286 287 288 287 288 288 288 287 287 286 285 284 284 284
308 308 308 308 308 308 308 308 308 308 308 308 308 308 308 308 308 307 307 307 308 308 309 309 308 308 308 307 307 307 307 306 305 304 304 305 306 305 305 305 304 304 303 302 302 301 301 301 301 301 301 301 300 300 299 298 298 297 295 292 290 288 287 287 287 287 287 288 287 287 287 287 288 289 289 288 288 287 286 285 284 283 283 283 283
307 307 307 307 307 307 307 308 307 307 307 307 307 307 307 307 306 306 306 306 307 307 307 307 307 307 307 307 306 306 306 306 305 303 303 304 304 304 304 303 303 303 302 301 300 300 300 299 299 299 299 299 298 297 297 296 295 294 294 292 290 288 289 289 288 289 290 290 289 289 289 288 288 289 289 288 287 286 285 284 283 283 282 281 281
306 306 307 306 307 307 307 307 307 307 307 306 306 306 306 306 306 305 306 306 306 306 306 306 306 306 306 306 305 305 305 305 304 303 302 303 303 303 303 302 301 301 300 300 299 299 299 298 298 298 298 298 297 296 295 294 292 292 292 290 289 290 291 291 290 291 293 292 291 290 291 290 290 289 289 287 286 285 284 283 282 282 281 281 281
304 305 306 306 306 306 306 306 305 306 306 306 306 305 304 305 305 305 305 305 305 305 305 305 305 305 305 305 305 305 304 304 304 303 302 302 302 302 301 300 300 299 299 299 298 298 297 297 296 296 296 296 295 294 293 291 290 290 289 288 289 290 290 290 290 292 294 294 293 292 293 292 290 289 288 287 285 284 283 282 282 281 281 281 281
302 303 303 303 304 304 304 304 304 304 305 305 305 304 304 304 304 304 304 304 304 304 304 304 304 305 304 304 304 304 303 303 303 302 302 301 302 301 300 299 298 297 297 297 297 296 296 296 295 294 294 293 292 292 291 289 288 287 287 288 288 289 289 291 292 293 294 294 293 293 292 291 290 289 287 286 285 284 283 282 282 281 281 281 281
301 301 301 301 301 301 301 302 302 303 303 303 303 303 304 304 303 303 303 303 303 303 303 303 303 303 303 303 303 302 302 302 302 302 302 301 301 300 299 297 296 295 295 295 295 295 295 294 294 293 293 291 290 290 289 287 286 286 287 288 289 290 291 293 293 293 293 292 292 292 291 290 289 287 286 284 283 283 282 282 282 281 281 281 280
302 301 301 301 300 299 299 299 300 301 301 301 302 302 302 303 303 303 303 302 302 302 302 302 302 302 302 302 301 301 301 301 301 301 302 301 300 298 296 295 294 294 294 294 294 293 293 293 292 292 291 290 290 289 288 287 286 286 287 289 290 291 292 292 292 292 291 291 290 290 289 288 286 285 284 283 282 282 282 282 281 281 280 280 279
300 300 301 301 300 299 299 299 299 299 300 300 300 301 301 301 302 302 302 301 301 301 301 302 302 301 301 301 300 300 300 300 300 301 301 300 298 296 294 293 293 292 292 292 292 292 291 291 291 290 290 289 288 287 287 286 286 287 288 290 291 291 291 291 291 290 290 289 288 287 287 285 284 283 283 283 282 282 282 281 281 280 279 278 278
298 298 299 299 299 299 299 298 298 298 298 299 299 299 300 300 300 300 300 300 300 301 301 300 300 300 300 299 299 299 299 299 299 299 299 298 296 294 293 292 291 291 290 290 290 290 290 290 289 289 289 288 287 286 286 286 286 287 290 290 290 289 289 289 289 288 287 287 286 285 284 284 283 283 283 283 282 282 281 281 280 279 278 277 276
297 297 298 298 299 299 299 298 298 298 298 298 299 299 299 299 299 299 299 299 299 299 299 299 298 298 298 298 297 297 297 297 298 297 297 296 294 293 292 291 290 289 289 288 288 288 288 288 288 288 288 287 286 286 286 286 287 289 291 290 289 288 288 288 288 286 285 284 283 283 283 283 283 282 282 282 282 281 281 280 279 278 278 277 275
297 297 297 298 298 298 298 298 298 298 298 298 298 298 298 298 298 298 298 298 298 297 297 297 297 297 297 296 296 295 295 296 296 296 295 295 294 292 291 290 289 288 288 287 286 286 286 286 286 286 287 287 286 285 285 286 288 291 292 291 289 288 288 288 287 285 284 283 283 283 282 282 282 281 281 281 280 279 279 278 278 277 277 276 275
296 296 297 298 298 298 298 297 297 297 297 297 297 297 297 297 297 297 297 297 296 296 296 295 295 295 295 294 294 294 294 294 294 294 294 293 292 291 290 289 288 288 287 286 285 285 284 284 285 285 286 285 285 285 286 288 290 292 292 292 291 290 288 287 285 284 283 283 282 282 282 281 281 280 280 279 278 278 277 277 277 277 275 274 273
295 295 296 296 297 297 297 297 297 297 297 297 297 297 297 297 296 296 295 295 294 294 294 293 293 293 292 292 292 292 293 293 293 292 292 292 291 290 289 289 288 288 286 285 284 284 284 284 284 285 285 285 285 285 287 290 292 292 292 292 291 290 288 286 284 283 283 282 282 281 281 280 279 279 278 278 277 277 277 276 275 274 273 273 272
294 294 294 295 296 296 296 296 295 296 296 296 296 296 296 296 295 295 294 293 293 292 292 291 291 290 290 290 290 291 291 291 291 291 291 290 289 288 288 289 288 287 286 285 284 284 284 285 284 285 285 286 286 287 288 290 291 292 292 291 290 289 287 285 283 283 282 282 281 281 280 279 279 278 277 277 277 276 276 274 273 272 272 272 271
293 294 294 294 294 295 295 295 294 295 295 295 295 295 295 295 294 294 293 292 291 291 290 290 289 289 288 288 289 289 290 289 290 290 289 289 287 287 288 288 288 287 286 285 285 284 284 285 285 285 286 286 287 288 289 290 292 291 291 290 289 287 285 284 283 282 282 281 280 280 279 279 278 277 277 277 276 275 274 273 272 271 271 270 270
292 293 293 293 293 293 293 293 293 294 294 294 294 294 294 294 293 293 292 291 290 289 289 289 288 288 287 287 288 288 288 288 288 288 288 287 287 287 288 288 287 286 286 285 285 285 285 285 285 285 286 287 288 288 289 291 291 290 289 288 287 286 285 283 283 282 281 280 280 279 279 278 278 277 277 276 275 274 273 272 272 271 270 269 269
291 292 293 293 292 292 292 292 293 293 293 293 293 293 293 292 292 292 291 290 289 289 288 288 287 287 286 286 287 287 287 287 287 287 286 286 286 287 287 287 286 286 285 285 285 285 285 285 285 286 287 288 288 288 289 290 290 288 287 286 286 285 284 284 283 282 281 280 279 279 278 278 277 276 275 275 274 273 273 272 271 270 269 269 268
289 290 291 292 292 291 291 291 292 292 291 291 292 292 292 291 291 290 290 289 289 288 287 287 286 286 286 286 286 286 286 285 285 285 285 286 286 286 286 286 285 285 284 284 284 284 285 285 285 287 288 288 288 288 288 288 287 286 285 285 285 284 284 284 283 282 281 280 279 278 278 277 276 275 275 274 274 273 272 271 270 269 268 268 268
288 289 289 289 290 290 290 290 290 291 291 290 290 290 290 290 290 290 290 290 289 288 287 287 286 286 286 286 286 285 285 285 285 285 285 286 286 286 285 285 284 283 283 283 284 284 285 285 286 287 288 287 286 286 286 286 285 284 284 284 284 283 283 282 282 282 281 280 279 278 277 276 275 275 274 274 273 272 271 270 269 268 268 268 268
288 288 288 288 288 288 288 289 289 289 290 290 289 289 290 289 289 289 290 290 290 289 289 288 287 287 287 286 286 285 284 285 285 285 285 285 285 285 285 284 283 283 283 283 284 284 285 286 287 287 286 285 285 284 284 284 283 283 283 283 283 282 282 281 281 280 279 279 278 277 276 275 274 274 274 273 272 271 269 268 268 268 268 268 268
286 287 287 287 287 287 287 288 288 288 288 288 288 289 289 289 288 288 288 288 289 289 288 288 287 287 287 286 286 286 285 285 286 285 285 285 285 285 284 284 283 283 283 283 284 285 285 286 286 285 285 284 283 282 282 282 282 282 282 282 282 281 281 280 280 279 278 278 277 276 275 275 274 274 273 272 271 269 268 267 267 267 268 268 267
284 285 285 286 286 286 286 287 287 287 287 287 287 287 287 288 288 287 287 287 287 287 287 287 286 286 286 286 285 285 285 285 285 285 285 285 285 284 284 284 283 283 283 284 284 285 285 284 283 283 283 282 282 281 281 281 281 281 281 280 280 280 280 279 279 278 277 277 276 275 275 275 274 273 272 271 269 268 267 267 267 267 267 267 266
283 284 284 285 285 286 286 286 286 286 286 286 286 286 285 285 286 286 286 286 286 286 286 286 286 286 286 285 285 285 285 285 285 285 285 285 285 284 284 284 284 283 283 284 284 284 284 283 282 282 282 281 281 281 281 281 281 281 280 280 279 279 279 279 278 277 276 276 275 275 275 274 274 273 271 270 268 267 267 266 266 266 266 265 265
282 283 283 284 284 285 285 285 285 285 286 285 285 285 285 284 284 285 286 286 285 285 285 285 285 285 285 285 285 285 285 285 285 285 285 285 284 284 284 284 284 284 284 284 284 283 283 282 281 281 281 281 281 281 281 281 281 281 281 281 279 278 278 277 277 276 276 275 275 275 274 274 273 272 270 268 267 266 266 266 266 265 265 265 265
281 281 282 283 283 284 284 285 285 285 285 285 285 285 285 284 284 285 285 285 285 285 285 285 285 285 285 285 285 284 284 284 285 285 285 284 284 284 284 284 284 284 284 284 283 283 282 281 281 281 281 281 282 282 281 281 282 281 280 280 279 278 277 276 276 276 275 275 275 274 274 273 272 271 269 267 266 266 266 266 265 265 265 264 265
280 280 281 282 282 283 283 284 285 285 285 285 285 285 284 284 284 284 285 285 285 284 284 284 284 284 284 284 284 284 284 284 285 285 285 284 284 284 284 284 285 285 284 284 283 282 282 281 281 281 281 282 282 283 282 282 282 281 280 279 278 277 276 276 276 275 275 274 274 274 273 272 271 269 268 267 266 266 265 265 265 265 264 264 264
278 279 280 281 282 283 283 284 284 285 285 285 285 285 285 284 284 284 285 285 285 285 284 284 284 284 284 284 283 283 283 284 285 285 285 284 285 284 284 284 285 284 283 283 283 283 282 283 283 282 282 283 283 283 283 282 281 280 280 279 278 277 276 276 275 275 274 274 274 273 272 271 270 268 267 267 266 266 266 265 265 264 264 264 264
277 278 278 279 281 282 283 284 285 285 285 285 285 285 284 284 284 284 284 284 284 284 284 284 284 284 284 283 283 283 283 284 285 285 284 285 285 284 284 284 284 283 282 282 282 282 282 283 283 283 283 283 283 282 281 281 280 279 279 278 278 277 276 276 275 275 274 274 273 273 272 270 269 268 267 266 266 265 265 265 264 264 264 263 263
275 276 277 278 279 281 282 283 284 285 285 285 285 284 284 284 284 284 284 284 284 284 284 284 284 283 283 283 283 282 283 284 285 285 285 285 285 284 284 284 283 283 282 282 282 282 282 282 282 282 282 282 281 281 280 280 279 279 278 277 277 277 276 275 275 274 274 274 273 272 271 269 268 267 267 266 266 265 265 264 264 264 264 263 262
274 275 276 277 278 280 281 283 284 284 284 284 284 284 284 284 283 283 283 283 283 283 283 283 283 283 283 283 282 282 283 284 285 285 285 285 284 284 284 284 283 283 282 282 282 282 282 281 281 281 281 281 281 281 280 280 279 278 278 277 276 276 275 275 274 274 274 273 272 271 270 268 267 267 266 266 265 265 264 264 264 264 263 263 263
273 273 274 276 277 279 280 282 283 284 284 284 284 284 283 283 283 283 283 283 283 283 283 282 283 283 283 283 282 282 283 284 285 285 285 284 284 284 284 283 283 283 282 282 282 282 282 281 281 281 281 281 281 280 280 279 278 278 277 277 276 276 275 275 274 274 273 273 272 270 268 267 266 266 265 265 265 265 264 264 264 263 263 263 262
272 272 273 275 276 278 279 281 282 283 284 284 284 283 283 283 283 282 282 282 282 282 282 282 282 282 282 283 283 283 283 284 284 284 283 283 283 283 283 283 283 282 282 282 282 281 281 281 281 280 280 279 279 278 278 278 277 277 277 276 276 275 275 274 274 273 273 272 271 269 267 267 266 266 265 265 265 264 264 264 263 263 262 262 262
270 271 272 274 275 277 278 280 281 283 283 283 283 283 283 283 282 282 282 282 282 282 281 281 281 281 282 282 283 283 283 283 283 282 282 282 282 282 282 282 282 282 282 281 281 281 280 279 279 279 278 278 278 278 277 277 277 277 276 276 275 275 274 274 273 273 272 271 269 268 267 266 266 265 265 265 264 264 264 263 263 262 262 262 261
270 270 272 273 274 276 277 279 280 282 282 283 283 283 282 282 282 281 281 281 281 281 280 280 280 281 281 282 282 282 282 282 282 282 281 281 281 281 281 281 281 281 280 280 280 279 278 278 277 277 277 277 277 277 277 277 277 276 276 275 275 274 274 273 272 271 270 269 268 267 266 266 265 265 264 264 264 264 263 263 262 262 262 261 261
268 269 271 272 273 275 276 278 279 281 282 282 282 282 282 282 281 281 281 280 280 280 280 279 280 280 280 280 281 281 281 281 280 280 280 280 280 280 280 280 280 279 279 279 278 278 277 277 276 276 276 276 276 277 276 276 276 275 275 274 274 273 273 272 271 270 269 268 267 266 266 265 265 265 264 264 264 263 263 262 262 262 261 261 260
267 268 269 271 272 274 275 277 278 280 281 281 282 281 281 281 280 280 280 280 279 279 279 278 279 279 279 279 279 279 279 279 279 279 279 279 279 279 279 279 279 279 278 278 278 277 277 276 276 276 276 276 276 275 275 274 274 273 273 272 272 271 270 269 269 268 267 267 266 266 265 265 265 264 264 264 263 263 263 262 262 261 261 261 260
266 267 268 270 272 273 275 276 278 279 280 281 281 280 280 279 279 279 279 279 278 278 277 277 277 277 277 278 278 278 278 278 278 278 278 278 278 278 278 278 278 278 277 277 277 276 276 276 276 276 276 275 275 274 273 273 272 271 271 270 270 269 268 268 267 267 266 266 266 266 265 265 265 264 264 263 263 262 262 262 261 261 261 260 260
265 266 268 270 271 273 274 276 277 278 279 280 280 279 279 278 278 278 278 278 277 277 277 276 276 276 277 277 277 278 278 278 278 278 278 278 278 278 278 277 277 276 276 276 275 275 275 274 274 274 273 273 272 272 271 271 270 270 269 269 268 268 268 267 267 266 266 266 266 266 265 265 264 263 263 263 262 262 262 261 261 261 260 260 260
265 266 268 270 271 273 274 275 276 277 278 278 278 278 278 278 277 277 277 277 276 276 276 276 275 275 276 276 276 277 277 277 277 277 277 277 277 277 276 275 275 275 274 274 273 273 272 272 271 271 271 271 270 270 270 269 269 269 268 268 267 267 267 267 266 266 266 266 265 265 264 264 263 263 263 263 262 262 261 261 261 260 260 260 260
265 267 268 270 271 272 273 274 275 276 277 277 277 277 276 276 276 276 276 275 275 275 275 275 274 274 274 275 275 275 276 276 276 276 276 276 275 275 274 274 273 273 273 272 271 271 271 270 270 270 269 269 269 269 269 268 268 268 267 267 267 267 267 266 266 266 266 265 265 264 264 264 263 263 263 262 262 261 261 260 260 260 260 259 259
266 267 269 270 271 272 273 274 274 275 276 276 276 275 275 275 275 274 274 274 274 274 274 273 273 273 273 274 274 274 275 275 275 275 274 274 273 273 272 272 271 271 270 270 270 270 269 269 269 269 269 269 268 268 268 267 267 267 267 267 267 267 266 266 266 265 265 265 264 264 264 263 263 263 262 262 261 261 260 260 260 260 259 259 259
267 267 268 269 270 271 272 273 273 274 274 274 274 274 274 273 273 273 273 273 273 272 272 272 272 272 272 273 273 274 274 274 273 273 273 272 272 271 271 270 270 269 269 269 269 269 269 269 268 268 268 268 267 267 267 267 267 267 267 267 266 266 266 265 265 265 264 264 264 263 263 263 263 262 262 262 261 261 260 260 260 259 259 259 258
Wind_Speed
19 20 22 23 24 26 26 26 27 28 29 29 31 33 33 33 33 33 32 33 32 32 32 32 32 32 32 32 31 31 31 30 30 30 30 32 33 33 34 34 34 34 34 35 35 35 37 38 38 38 39 38 39 38 37 36 35 35 34 34 34 33 30 25 15 6 7 12 13 14 17 16 12 13 16 18 19 18 15 14 13 14 15 16 16
20 21 21 22 24 26 26 26 26 26 28 29 31 32 33 33 32 32 33 33 32 32 33 32 32 31 31 31 31 31 31 30 29 29 30 33 33 33 34 35 35 34 33 34 34 34 35 36 36 37 37 37 36 36 35 35 34 34 34 34 34 33 31 28 20 12 10 12 12 13 16 16 14 13 15 16 16 15 14 15 16 16 17 18 18
20 21 22 22 24 25 26 26 26 26 27 29 31 32 32 32 32 33 33 33 33 33 33 32 31 30 30 31 30 30 31 30 29 30 31 32 32 31 33 34 36 36 36 36 36 35 35 35 36 36 35 34 34 34 33 32 32 33 34 34 33 31 30 29 24 17 14 13 13 16 18 16 15 16 16 15 15 16 16 17 17 17 17 17 15
20 21 22 23 23 24 26 27 27 28 28 30 31 31 31 31 32 33 34 34 34 34 33 32 31 30 31 31 30 30 30 30 30 31 32 32 32 31 31 33 35 36 37 37 36 36 35 35 35 35 34 34 33 32 31 31 32 33 33 32 31 30 30 30 26 21 18 16 14 18 21 18 17 18 18 17 17 17 17 17 17 16 15 14 13
21 21 22 23 23 24 26 27 28 29 30 31 32 32 32 32 32 33 33 34 34 33 33 32 31 31 31 31 31 31 30 30 30 32 32 32 32 33 31 31 33 34 35 36 35 35 35 36 36 35 34 33 32 32 32 32 32 32 31 31 30 30 30 28 26 23 21 20 18 18 20 20 19 18 19 18 17 16 16 15 15 14 13 12 11
21 21 22 23 24 25 27 27 29 30 31 32 33 33 34 34 34 34 34 34 33 33 33 33 32 32 32 31 31 31 31 30 31 32 33 32 32 33 32 32 33 33 34 34 35 35 35 35 35 34 34 33 33 32 32 32 31 31 30 30 29 29 29 27 26 23 22 23 23 22 22 22 20 19 18 17 16 15 14 13 12 12 12 11 10
21 21 21 22 24 26 27 28 30 31 31 32 33 33 34 34 34 34 34 33 33 33 33 33 33 32 32 32 32 32 31 31 31 32 32 32 33 34 33 32 33 33 34 34 34 34 35 35 34 34 34 34 33 33 32 31 30 30 30 29 29 28 28 28 27 24 24 24 24 23 23 22 19 17 16 15 15 14 14 13 11 11 10 10 11
22 22 21 22 24 26 27 28 29 31 31 31 32 33 34 34 34 34 33 32 33 33 33 33 33 32 33 33 32 32 32 32 31 32 33 33 33 34 33 33 33 33 33 33 33 34 34 33 33 34 34 33 33 33 32 31 30 29 28 28 29 29 29 30 28 26 26 26 24 23 23 20 18 16 15 16 16 14 14 13 11 9 9 9 10
23 23 22 23 25 26 26 28 29 30 30 31 32 33 33 34 34 33 33 33 33 33 33 33 33 33 34 33 33 32 33 33 31 31 32 33 33 34 33 33 32 32 32 32 32 32 32 32 32 32 32 31 32 32 31 30 30 29 29 29 30 31 31 31 29 28 27 23 21 20 19 18 19 19 18 18 16 13 12 10 9 8 8 10 10
24 23 24 25 25 25 26 27 28 29 30 31 32 32 32 32 32 32 33 33 32 32 32 33 33 34 34 34 33 33 33 34 32 31 32 33 33 33 33 33 32 32 31 32 31 31 31 31 30 30 29 29 29 30 29 28 29 29 30 31 33 35 35 31 29 29 26 22 21 21 19 17 20 21 19 17 14 12 11 10 9 7 7 9 9
25 25 25 26 26 26 26 26 27 28 29 30 30 30 30 30 30 31 31 31 31 32 32 33 34 34 34 34 34 34 34 33 32 30 31 32 32 32 32 32 32 32 31 31 31 31 30 29 29 28 28 28 28 29 28 28 29 29 29 31 35 38 36 33 30 29 26 23 22 22 20 18 20 21 18 16 14 13 12 11 9 7 5 6 7
26 27 27 27 27 27 27 27 27 27 28 28 29 29 29 29 29 30 31 31 31 31 32 33 34 34 34 34 35 34 34 33 31 30 30 31 32 32 32 32 31 31 31 31 30 30 29 29 28 28 28 28 29 28 27 28 29 28 29 31 34 33 32 33 32 29 27 25 22 21 21 20 21 21 19 18 16 14 12 10 8 7 7 8 9
27 27 27 27 27 28 28 28 27 27 27 27 28 28 28 29 29 30 30 30 30 31 32 33 34 34 34 35 35 35 34 33 32 30 30 31 32 32 32 32 31 30 30 30 30 29 28 28 28 27 27 28 28 28 27 28 27 27 29 31 29 26 26 27 27 26 26 25 23 23 23 22 22 22 20 18 16 15 13 10 9 9 9 10 11
27 27 26 26 26 27 28 28 28 28 27 26 27 27 28 29 30 29 29 29 29 31 32 33 34 34 35 35 35 35 35 33 32 30 29 30 31 31 31 31 30 30 29 28 28 29 28 28 28 28 27 27 28 27 27 28 28 28 29 28 26 24 23 22 22 22 22 22 22 23 23 22 21 21 19 16 15 15 13 11 10 10 10 10 9
30 29 29 28 28 28 28 28 28 28 28 27 26 27 28 29 29 29 28 29 30 31 32 32 33 34 34 34 35 35 35 33 31 30 29 30 31 30 30 30 29 29 28 27 28 28 28 29 28 28 27 27 27 28 29 30 30 30 29 27 25 23 21 21 22 20 19 19 18 18 20 20 17 17 17 14 12 11 10 9 9 9 9 9 8
32 32 32 32 32 31 30 30 30 30 29 27 27 28 28 29 29 28 28 29 30 30 31 32 33 33 33 33 34 35 34 32 30 30 30 30 30 29 28 28 28 28 28 27 28 28 28 28 28 27 27 27 28 29 31 33 32 30 28 26 25 24 22 20 20 18 17 18 16 16 18 18 15 14 14 12 10 10 9 9 9 9 8 8 7
31 33 34 34 34 33 32 32 32 31 30 29 29 29 29 29 28 28 28 30 30 31 32 32 32 32 32 32 33 34 34 31 29 30 30 30 29 28 27 27 27 27 27 27 27 27 27 27 27 27 27 27 28 30 32 34 33 31 30 28 27 25 22 20 19 18 18 18 16 16 16 15 12 11 10 10 10 11 12 12 11 10 8 7 6
31 33 34 34 34 34 32 31 31 31 30 30 30 30 30 29 28 27 27 29 30 30 30 31 31 31 31 32 32 32 32 30 28 29 30 29 28 26 26 26 26 26 26 25 25 26 25 26 26 26 26 27 29 33 35 35 35 34 34 32 28 25 24 22 21 20 18 16 15 14 14 13 13 12 11 11 12 12 13 13 12 10 8 8 8
33 34 35 35 34 33 32 30 29 29 30 30 30 30 30 29 28 27 27 28 29 29 29 29 30 30 30 30 30 30 30 28 28 28 28 27 26 26 26 26 25 24 24 23 23 23 24 24 25 25 27 28 31 34 36 36 36 36 35 32 29 27 26 25 24 22 21 19 18 17 17 16 16 15 14 13 13 12 11 11 10 9 8 9 9
35 35 35 35 34 33 32 30 29 28 29 29 29 29 28 28 27 27 27 27 27 28 27 27 28 28 28 28 28 28 28 27 27 27 27 26 25 25 26 26 24 23 23 23 23 23 23 24 25 26 27 28 31 34 35 35 36 38 37 33 31 29 28 26 25 24 23 23 21 20 19 18 17 15 13 12 11 10 9 8 8 8 9 9 9
35 35 35 34 34 33 31 29 28 28 28 28 29 29 27 27 26 26 26 26 26 26 27 26 27 27 26 26 26 26 26 26 26 26 25 24 23 24 26 26 25 25 24 24 24 23 23 24 25 26 27 29 32 35 35 35 37 38 35 32 30 29 28 27 25 24 24 24 22 21 19 17 16 14 12 11 10 8 7 7 7 8 9 9 8
34 35 35 35 34 33 31 29 27 27 27 27 28 29 27 25 25 24 24 24 24 25 25 25 25 25 24 23 24 25 25 25 25 25 24 22 22 24 27 27 27 26 25 23 22 22 24 25 26 27 28 30 34 36 37 37 37 36 33 30 28 27 28 28 27 26 25 24 23 21 19 17 16 14 13 12 10 8 7 7 8 8 8 7 7
34 35 35 35 35 33 31 29 27 26 26 25 27 28 27 25 24 23 23 23 23 24 24 23 22 22 22 21 22 23 24 24 24 23 22 21 22 24 27 28 28 27 26 24 23 24 25 26 27 28 29 31 34 36 37 38 36 33 31 29 27 27 28 29 28 28 27 25 23 21 19 17 17 16 15 13 10 8 7 7 7 7 6 6 7
35 36 36 36 35 34 32 30 27 26 25 25 25 26 26 24 23 23 22 22 22 23 23 22 21 21 21 21 21 22 23 23 23 22 21 21 22 24 27 28 28 26 26 25 24 25 25 26 28 29 30 33 35 35 36 37 35 32 31 28 28 29 30 30 29 28 27 25 23 21 19 19 18 17 16 13 10 8 8 8 7 6 6 7 7
35 36 36 36 35 34 33 31 29 27 26 25 25 25 25 24 23 23 22 21 22 23 22 21 21 21 21 21 21 22 22 22 22 21 20 21 22 23 25 27 27 25 24 24 23 24 25 27 28 30 32 33 33 32 34 35 33 30 29 28 29 31 30 30 29 28 26 24 23 22 21 21 19 17 15 12 10 9 9 9 8 8 8 8 8
35 36 36 36 35 34 33 33 31 29 27 26 25 25 25 24 24 23 22 22 22 23 22 21 21 21 20 21 21 22 22 22 21 21 20 20 21 22 23 24 24 23 23 23 23 23 24 26 28 30 32 32 31 31 33 32 29 27 28 29 30 30 29 28 27 26 25 24 23 22 23 22 20 17 15 12 11 11 10 10 9 9 9 9 8
33 35 35 36 35 34 32 33 33 31 29 27 26 26 25 24 25 24 23 23 23 22 22 21 21 20 20 21 22 21 21 21 20 20 20 20 21 21 21 22 22 22 22 22 22 22 23 25 28 30 31 30 29 29 31 29 27 27 28 28 27 27 26 23 21 21 22 23 23 23 23 22 20 18 16 13 13 12 12 11 11 11 11 10 9
33 35 35 34 35 34 32 32 32 31 30 28 27 27 26 26 26 28 27 26 25 24 24 23 23 23 23 23 21 20 20 21 22 24 24 24 23 23 23 23 23 23 23 22 22 23 24 26 28 29 28 27 26 27 28 29 29 29 28 26 24 24 22 19 17 18 20 21 23 23 23 22 20 18 16 14 14 13 13 12 12 12 11 11 10
34 35 35 33 33 33 31 31 31 30 31 30 29 29 28 27 28 30 30 28 28 27 26 26 26 26 26 24 22 20 20 22 25 26 26 25 25 25 25 26 25 25 24 24 24 25 26 27 29 29 28 27 26 27 28 29 29 28 26 25 24 23 21 19 19 20 21 22 23 24 24 22 20 18 16 16 15 14 14 13 13 12 11 11 10
33 34 33 32 32 31 31 31 31 30 30 30 30 30 29 27 27 28 29 28 28 28 28 26 26 25 25 25 24 22 21 22 22 23 24 25 25 25 24 24 25 25 24 25 25 25 25 26 28 29 29 29 28 29 30 30 29 27 26 25 24 23 21 20 20 21 22 22 23 23 23 21 19 18 18 17 16 15 15 14 13 12 11 10 10
30 32 32 31 31 31 30 31 31 29 29 29 28 28 29 28 27 27 26 26 27 27 27 26 25 25 24 25 24 23 21 20 19 21 24 24 24 24 23 22 24 25 25 26 26 25 24 24 25 27 29 29 30 31 32 31 30 29 28 26 23 22 21 21 21 22 22 22 22 22 21 19 19 19 19 18 17 16 16 15 13 12 11 10 10
29 32 32 31 31 30 30 30 29 29 28 28 26 26 25 25 25 25 25 25 25 26 26 26 26 25 24 24 24 23 22 20 19 21 25 25 25 25 24 23 24 26 28 29 27 24 24 24 23 25 27 28 29 32 32 31 31 30 28 26 24 23 22 22 23 22 22 22 22 21 19 18 18 19 18 18 18 17 17 15 13 12 11 10 10
30 32 33 32 31 31 29 28 27 27 27 26 26 25 23 22 21 22 23 23 23 24 24 25 25 25 24 23 23 23 23 21 19 21 25 26 26 26 25 25 26 28 30 31 27 24 24 24 24 25 26 27 29 31 31 30 30 28 26 25 25 25 24 23 23 22 21 21 20 19 18 18 18 19 18 19 19 18 17 15 13 12 12 11 10
31 32 32 31 31 31 30 28 27 27 26 26 25 24 24 23 22 21 20 19 19 20 21 21 22 22 22 21 20 21 21 19 19 21 25 26 25 25 24 25 26 28 31 31 27 24 24 25 25 26 27 27 29 30 29 28 27 26 26 25 25 25 25 24 23 22 21 20 18 17 17 18 19 19 19 19 19 18 17 15 15 14 13 12 11
32 32 31 30 29 29 29 28 27 27 26 25 25 24 24 24 23 21 20 18 18 19 19 19 19 18 18 18 18 19 19 18 19 22 25 24 23 24 25 25 25 27 28 29 28 27 26 26 26 27 27 27 28 28 27 27 26 26 27 26 25 26 26 25 24 22 21 19 17 16 17 18 19 19 20 20 20 19 17 17 16 15 13 12 12
32 32 31 28 26 27 28 27 26 26 26 25 25 25 25 24 23 22 21 21 20 19 18 18 18 17 16 17 17 17 17 18 20 23 23 22 23 25 26 24 23 22 23 25 27 28 28 27 27 27 27 26 26 26 26 27 27 27 27 26 26 27 26 25 24 22 20 18 16 17 18 18 18 19 20 19 19 18 17 16 15 14 13 12 12
33 32 31 29 27 26 27 27 27 27 27 27 26 25 24 23 23 22 22 21 20 18 17 16 17 16 16 17 17 17 18 19 22 23 23 22 24 25 25 22 20 19 20 22 24 26 27 27 27 27 27 26 26 26 26 26 26 25 25 25 25 25 24 23 22 21 19 17 17 18 18 18 19 19 19 19 18 17 16 15 14 14 13 12 12
33 32 31 29 28 28 28 28 27 26 26 26 26 24 23 23 22 22 21 20 19 18 17 16 16 17 18 18 18 18 19 21 24 25 25 25 26 25 24 22 21 21 21 22 23 24 25 25 25 25 26 26 25 25 25 24 24 24 24 24 23 22 21 21 20 19 17 17 18 18 18 18 18 19 18 19 18 17 16 15 15 14 14 14 14
34 33 31 28 27 27 27 27 27 25 24 25 24 24 23 22 21 21 20 19 18 17 17 16 17 18 19 19 20 21 22 23 25 26 27 27 26 25 23 21 20 21 23 23 23 23 23 23 23 23 23 22 22 22 22 22 23 23 23 23 23 21 20 20 19 17 17 17 18 18 18 18 18 18 18 18 17 16 16 15 15 15 15 15 15
35 34 32 27 25 25 26 26 27 25 24 23 23 23 23 22 21 20 19 18 18 18 17 17 18 18 19 20 23 25 24 23 23 24 25 26 25 25 24 23 22 23 24 24 23 22 21 21 21 20 20 20 20 21 21 22 22 22 22 21 21 20 19 17 17 16 17 18 18 18 18 17 17 17 18 18 17 16 15 15 15 14 15 15 14
34 35 33 27 24 25 26 26 27 25 24 24 23 23 23 23 22 21 20 19 18 18 17 17 16 17 18 20 23 25 24 22 21 22 22 23 23 23 23 23 23 24 24 24 23 22 21 20 19 19 19 19 19 20 20 20 20 20 20 19 19 18 16 15 16 16 17 18 18 18 18 17 17 17 18 17 16 16 15 15 15 15 15 15 15
32 33 31 27 25 25 25 26 27 26 25 24 24 23 23 23 22 22 21 20 19 18 17 16 15 15 16 17 19 22 22 21 21 21 21 21 22 22 22 22 22 22 22 22 21 20 19 19 18 18 18 18 19 19 20 19 18 18 18 18 17 16 15 15 16 17 18 18 17 17 17 16 17 17 17 16 16 16 16 16 16 15 15 15 15
28 28 27 26 26 26 27 27 27 25 24 24 24 24 24 23 23 22 21 20 20 19 19 19 18 18 17 17 18 21 22 22 23 23 23 23 23 22 21 20 19 18 18 17 16 16 16 17 18 18 17 17 17 18 18 17 17 17 17 16 16 15 16 16 17 17 17 17 17 16 16 16 16 16 16 16 16 16 17 17 17 16 16 16 15
26 25 25 26 26 27 28 29 27 26 26 25 24 24 24 23 22 22 21 20 21 21 22 22 22 22 21 19 19 21 22 23 23 24 24 23 22 21 20 18 17 16 16 15 14 14 14 16 17 17 16 16 16 16 15 15 14 14 15 15 15 16 16 16 16 16 16 16 16 15 15 15 15 16 16 17 17 17 17 18 17 17 17 17 17
25 25 26 25 25 26 28 28 27 26 26 25 23 23 23 22 22 21 21 21 22 22 22 23 24 24 23 20 19 20 22 22 23 23 23 22 21 20 19 18 17 16 16 15 15 14 14 14 16 16 17 17 17 16 15 15 14 14 14 14 14 14 14 13 13 13 14 14 14 14 14 14 15 16 17 18 18 18 18 18 17 17 17 17 18
26 25 25 24 24 25 26 26 25 25 24 23 22 21 21 21 21 20 21 21 21 22 21 21 22 23 22 21 20 21 22 22 23 22 22 21 20 19 18 18 17 17 16 16 16 16 15 15 15 16 17 17 17 17 16 16 16 15 15 14 14 13 13 13 14 14 14 14 14 14 14 15 16 17 17 17 17 17 18 18 17 18 18 18 18
26 25 25 25 25 25 26 25 24 24 23 22 21 20 20 20 20 20 21 21 21 22 22 21 22 22 22 22 22 23 23 23 23 23 22 20 19 19 18 18 18 17 17 17 17 17 17 16 16 16 16 16 16 16 16 15 15 14 14 14 13 13 13 14 14 14 13 13 14 14 15 16 16 16 17 17 17 18 18 18 18 18 18 18 18
26 24 25 26 25 25 25 23 22 22 22 21 20 20 20 20 21 21 21 22 22 23 23 22 22 22 22 22 23 23 24 24 23 22 21 20 18 18 18 19 19 19 18 18 18 17 17 17 16 16 16 16 15 15 15 14 14 14 13 13 12 12 12 12 12 12 13 14 15 15 16 16 16 16 16 17 18 18 18 17 18 17 17 18 18
26 25 25 25 25 24 23 22 21 21 21 20 19 19 19 20 20 20 21 22 23 23 23 23 22 22 23 23 23 23 23 23 22 21 20 19 18 18 19 19 19 19 19 18 18 17 17 16 16 15 15 15 14 14 14 14 13 12 11 11 11 11 11 12 13 14 15 15 15 15 16 16 16 16 16 17 17 17 17 17 17 17 17 18 18
25 25 25 25 24 23 22 21 20 19 18 18 18 18 18 19 19 19 20 21 21 21 21 22 22 23 23 23 23 22 22 21 21 20 20 19 19 20 20 19 19 19 18 18 17 17 16 15 15 14 14 14 14 13 13 12 11 10 10 10 11 12 13 14 14 15 15 15 15 15 15 16 16 16 17 17 17 17 18 17 17 17 18 19 19
23 23 23 23 22 20 19 17 16 15 15 15 16 16 17 17 17 18 19 20 20 20 20 21 21 22 22 22 22 21 20 20 20 20 21 21 21 20 20 19 19 18 18 17 16 15 15 14 14 13 13 13 12 11 10 10 10 10 11 12 13 13 13 13 14 14 14 14 15 15 16 16 16 17 17 17 17 18 17 17 17 18 18 19 18
Wind_Direction
296 287 280 272 269 268 266 266 266 264 264 262 263 264 265 265 266 268 268 268 267 266 265 265 264 263 263 262 262 261 259 259 260 257 259 264 264 261 258 255 253 250 248 245 242 240 239 238 240 241 241 240 238 236 234 232 231 230 229 229 229 229 226 221 217 202 191 206 214 215 212 210 214 211 207 211 216 217 215 210 211 217 223 231 241
307 301 294 281 273 271 270 270 269 267 266 265 265 266 266 267 267 268 268 268 267 266 266 265 264 263 263 262 261 260 258 258 259 256 259 265 265 262 258 255 255 254 252 250 249 247 245 243 243 244 242 241 238 236 234 232 231 229 228 228 228 226 223 217 207 190 182 194 199 197 196 197 199 191 188 196 199 196 197 202 210 219 229 240 249
307 303 299 291 283 278 275 273 270 268 267 267 267 267 268 269 269 268 268 268 267 266 265 265 263 262 262 261 260 259 258 257 257 255 258 265 268 266 262 257 256 257 257 257 255 251 248 246 246 245 243 241 238 237 235 232 231 230 229 229 226 224 219 213 207 191 173 177 186 182 177 181 183 176 175 181 183 188 197 207 217 227 237 246 249
305 301 297 295 290 283 279 276 271 268 268 267 268 268 267 268 268 267 267 267 266 265 264 263 262 261 259 259 258 257 257 257 257 256 258 263 267 268 266 261 259 258 257 257 255 251 249 247 248 246 242 239 237 235 233 232 231 230 229 227 224 222 216 210 208 199 179 170 175 178 178 178 176 174 177 180 186 196 205 214 224 232 237 239 239
309 304 298 293 290 286 282 278 273 270 269 268 268 268 266 265 265 265 264 263 263 264 263 261 259 258 257 258 258 257 256 257 258 258 258 260 264 267 268 265 262 259 258 256 254 252 250 249 248 245 240 236 234 233 232 231 229 227 225 223 221 218 212 206 205 204 190 176 172 178 182 180 174 177 185 188 194 204 211 217 224 224 224 228 235
318 312 304 296 291 289 286 282 277 275 273 272 271 270 268 267 265 264 263 261 261 261 261 260 258 257 257 258 259 258 257 258 259 260 259 259 262 265 266 265 263 260 259 257 255 253 251 250 249 245 240 236 234 233 231 228 225 222 220 218 216 210 203 199 199 199 193 182 176 175 178 179 177 178 188 197 200 203 205 206 209 214 221 229 240
327 320 311 301 295 293 291 288 285 282 279 277 275 273 271 269 267 266 264 261 260 259 259 259 258 258 258 259 259 258 258 259 261 261 260 259 261 262 263 263 262 260 259 258 256 254 252 251 248 245 242 239 236 233 229 224 221 219 217 214 208 201 195 191 190 189 185 178 173 172 173 178 182 182 187 196 196 196 197 196 200 215 230 240 251
332 326 316 306 302 301 300 297 292 288 285 282 279 277 274 272 270 268 265 262 261 260 259 259 259 259 259 258 258 258 257 258 261 262 260 260 260 261 261 262 260 259 258 257 255 253 252 250 247 246 244 242 239 235 230 224 217 212 211 208 200 192 186 183 182 181 178 173 171 174 174 174 178 180 182 185 187 191 196 198 205 220 235 252 267
333 327 318 311 309 309 307 303 298 294 290 287 284 282 279 277 275 272 268 265 263 261 259 259 258 258 257 257 256 255 255 256 259 261 260 260 260 261 262 261 260 258 257 256 254 252 250 249 247 246 245 243 240 237 232 226 219 211 204 198 191 184 179 177 175 173 172 168 165 168 170 172 178 180 180 183 187 192 196 199 208 223 244 263 275
333 327 319 316 315 314 311 308 304 299 295 292 289 286 284 281 278 275 272 269 265 261 258 256 255 255 255 255 254 254 254 255 257 259 259 259 261 261 261 260 258 257 255 253 252 250 249 247 246 245 244 241 237 234 229 225 222 216 207 197 188 180 174 171 172 172 168 162 162 165 167 174 183 186 186 186 187 189 191 194 200 219 252 272 283
333 327 322 321 320 317 315 313 309 304 300 296 292 289 287 284 280 277 274 270 267 263 258 255 254 254 254 255 254 254 254 255 256 259 259 259 260 260 260 259 257 255 253 251 249 249 247 245 244 242 239 236 232 229 225 219 215 212 208 200 191 185 179 173 172 172 168 165 167 171 174 178 185 189 188 183 183 189 193 195 200 215 235 255 274
333 328 326 325 323 321 318 315 312 309 306 302 297 293 288 284 280 278 274 271 268 263 258 256 255 254 253 253 253 254 255 255 256 258 260 259 259 259 258 257 256 253 251 249 247 247 245 242 240 237 234 231 227 222 217 213 209 206 202 196 190 189 186 181 177 176 175 172 172 177 184 186 187 189 187 183 184 188 193 197 203 208 213 224 243
333 328 327 327 325 323 320 316 313 312 311 307 301 295 289 284 281 278 276 274 269 263 260 258 256 254 253 252 253 254 254 254 255 257 260 260 258 258 256 255 253 251 250 248 246 244 242 239 236 233 229 227 223 217 210 204 201 198 192 186 184 186 189 190 190 189 185 180 180 186 193 194 191 190 189 189 187 184 188 197 201 202 213 227 242
334 331 330 331 330 327 323 319 315 314 313 309 303 296 290 286 283 280 277 273 267 263 261 259 257 255 253 253 254 254 254 254 253 255 259 260 258 256 255 253 251 249 248 247 244 242 240 237 232 228 224 219 215 210 202 193 188 184 181 180 183 187 190 190 189 187 186 186 191 196 197 196 195 191 190 192 191 189 191 194 195 203 219 236 252
338 338 336 336 335 333 329 323 318 316 314 309 303 296 290 287 284 282 278 273 268 266 263 261 259 257 255 254 254 253 254 254 253 254 256 258 256 254 252 250 247 247 246 245 244 242 239 236 231 227 221 214 209 203 193 185 180 177 177 179 181 181 180 179 177 178 184 189 195 199 194 192 194 190 187 190 189 188 190 190 197 209 224 242 255
341 340 337 336 336 334 331 325 320 317 314 309 302 296 291 288 285 283 278 273 269 266 263 260 259 258 256 254 252 253 254 253 252 252 253 255 254 251 249 246 244 243 243 242 242 240 237 233 229 223 218 211 205 198 189 181 176 173 172 171 170 169 169 172 176 178 182 183 186 191 188 187 189 184 182 184 179 176 182 191 205 214 222 243 256
340 338 335 333 332 332 331 326 321 317 314 308 302 298 294 290 287 282 276 272 269 265 263 262 260 258 256 254 252 253 253 253 252 252 251 252 251 246 243 242 240 240 240 240 239 236 233 230 224 219 214 207 199 191 184 178 173 171 168 165 165 163 161 165 170 172 177 180 181 181 179 177 174 168 170 177 180 184 190 197 208 215 220 234 244
337 334 332 330 329 329 328 325 321 317 313 308 303 300 297 292 289 283 276 272 270 268 266 264 261 258 256 254 253 254 253 253 253 251 250 249 246 243 240 238 236 236 235 235 234 232 229 226 221 216 210 202 194 189 184 178 174 173 169 164 161 158 158 162 165 166 170 173 166 160 160 162 161 159 166 178 185 194 201 207 215 218 220 223 226
334 331 328 327 325 325 325 324 320 317 313 309 305 302 299 295 291 285 278 273 271 269 266 263 261 258 256 255 254 253 253 254 252 251 250 248 244 240 236 233 230 229 229 227 226 225 223 220 216 214 210 201 192 188 185 180 176 174 170 164 160 160 165 169 168 165 163 158 153 153 158 166 171 173 179 187 193 201 209 215 219 219 227 232 229
330 328 325 323 322 322 322 321 319 316 313 310 307 303 299 296 291 285 280 276 272 268 264 261 259 258 256 254 252 251 251 252 252 251 250 247 243 237 232 228 224 222 221 220 217 215 214 211 209 209 206 197 188 185 183 181 180 177 173 170 168 168 172 172 170 167 162 158 159 164 166 171 178 184 190 195 199 204 206 210 218 227 238 238 231
328 326 323 320 319 319 320 319 317 315 313 310 307 303 299 295 291 285 281 276 271 266 262 258 257 256 254 251 250 250 250 251 252 251 249 247 242 233 227 224 221 219 217 214 210 205 201 200 201 203 199 190 185 184 184 184 184 180 177 177 177 176 176 173 169 167 165 163 166 169 170 174 180 186 193 194 196 202 206 218 234 242 244 240 235
326 324 320 318 316 317 317 316 314 312 311 310 306 302 300 296 291 285 280 274 269 264 261 257 254 253 251 248 247 248 249 250 250 248 247 245 239 230 225 224 223 220 213 206 202 199 197 197 196 196 194 188 185 184 186 187 185 181 180 182 181 179 178 173 168 168 168 168 168 169 174 179 181 185 190 192 196 206 219 237 247 246 245 246 245
325 321 318 316 315 315 315 313 311 308 308 307 303 300 298 295 289 283 277 271 266 261 258 255 252 250 248 246 246 247 247 247 246 245 243 240 234 229 226 225 224 220 213 207 202 199 197 196 193 191 190 187 184 185 187 187 184 181 181 182 181 179 176 171 168 169 169 169 170 172 177 183 186 188 191 194 200 211 227 241 243 243 249 252 252
324 320 318 315 314 314 313 311 308 305 304 303 299 296 295 291 285 279 273 266 261 257 254 249 245 244 244 244 244 245 244 242 241 240 238 233 229 227 226 224 223 220 216 213 208 201 198 196 193 189 187 185 185 186 187 185 182 181 181 180 178 176 174 170 169 170 168 169 173 176 179 186 191 192 194 198 205 216 228 235 236 240 247 249 253
321 319 316 313 313 313 312 309 306 303 302 299 294 291 290 285 279 274 268 260 255 252 250 246 241 239 240 240 241 242 241 238 236 236 233 227 224 223 223 222 221 220 216 214 211 205 201 197 191 186 184 184 185 185 184 183 181 180 178 177 176 175 173 171 171 170 170 173 177 179 181 186 192 195 198 203 211 221 229 232 234 236 236 237 242
319 317 315 313 312 312 310 307 305 303 300 295 290 287 284 278 273 269 262 255 251 249 247 244 240 239 239 238 238 239 237 234 232 230 226 221 217 218 219 218 218 217 216 214 211 205 200 194 187 182 183 184 182 180 179 178 176 174 175 177 177 175 174 174 174 174 175 177 179 181 183 186 191 195 200 207 215 224 230 233 234 234 231 231 230
318 315 313 311 310 309 307 306 304 302 299 294 289 284 279 272 266 261 254 248 245 244 243 241 238 238 239 238 236 234 232 228 224 219 215 211 208 210 212 211 209 206 205 204 201 198 194 189 184 182 183 182 180 176 173 169 165 167 173 177 177 176 178 180 179 180 180 179 181 183 185 187 191 196 202 210 218 227 232 233 233 230 224 221 223
318 314 311 309 307 306 305 303 301 300 297 294 288 282 277 270 263 258 253 248 244 240 239 238 237 237 238 237 233 228 224 221 217 214 209 204 201 200 200 199 197 193 193 193 192 191 189 184 182 181 179 175 171 166 161 160 163 169 174 175 175 177 179 178 177 181 183 182 182 183 185 189 194 199 206 213 220 227 230 227 227 225 218 214 218
317 313 311 309 306 305 304 301 298 296 294 291 288 283 278 272 266 264 261 255 250 246 243 241 242 243 242 239 232 224 221 222 220 216 209 201 197 194 192 191 192 191 192 191 187 184 182 180 178 175 170 165 160 155 155 159 165 170 172 173 175 177 178 178 179 182 184 185 186 186 188 192 195 201 209 215 220 225 226 223 221 220 217 217 221
314 310 309 308 306 305 303 300 297 294 290 288 286 284 281 274 267 265 264 260 255 250 247 246 247 248 246 243 239 233 231 230 225 215 205 199 197 194 193 194 195 192 189 186 183 181 178 174 172 169 165 161 157 155 157 162 165 167 170 175 178 179 181 184 186 184 185 188 191 190 191 194 197 203 210 216 219 219 219 218 218 219 221 223 225
310 306 306 306 305 304 301 297 296 293 289 286 283 282 281 277 269 262 261 260 257 253 249 248 248 248 247 245 242 238 236 234 225 212 203 198 196 195 195 195 193 190 185 180 179 180 177 171 168 166 164 162 160 160 163 165 166 168 171 174 179 183 185 187 188 186 187 189 192 193 196 199 204 210 214 217 218 217 216 215 215 217 220 223 228
308 304 304 303 303 302 298 295 293 290 287 285 281 276 275 275 271 265 260 258 257 255 253 250 248 246 246 244 241 237 236 232 223 211 204 198 194 195 194 190 186 186 185 181 180 180 178 172 168 167 166 164 164 165 168 170 171 172 173 175 180 186 190 190 189 189 190 191 191 194 199 205 211 216 218 218 217 216 216 214 213 215 217 219 225
308 303 302 302 302 300 297 294 291 287 283 281 277 272 266 264 266 268 264 260 258 257 255 253 250 247 246 245 243 239 235 230 219 208 202 197 193 191 189 186 184 184 184 182 180 179 177 173 171 171 170 169 169 170 173 175 177 179 181 183 185 187 190 191 190 191 193 194 195 199 204 211 216 218 218 218 217 217 217 215 212 212 215 219 223
310 303 301 299 298 296 294 292 289 286 282 277 272 268 263 259 259 262 263 260 256 253 251 250 249 247 245 243 239 232 228 223 214 203 198 194 191 187 184 183 184 184 184 182 179 177 177 175 175 175 175 174 175 176 178 181 183 184 186 188 188 187 188 190 192 193 194 195 199 205 210 216 220 219 217 216 216 217 218 216 215 214 216 221 226
311 306 303 300 295 292 290 289 286 283 279 274 269 264 261 259 256 255 254 253 250 249 246 242 239 238 236 233 229 223 219 216 208 198 193 191 187 183 179 179 181 181 181 182 181 180 179 179 179 180 180 181 182 183 185 188 190 191 191 190 189 188 188 190 192 194 196 199 204 211 215 220 222 222 220 218 217 218 218 216 217 219 220 222 227
311 307 304 301 296 291 288 286 282 279 275 272 268 263 259 256 253 251 251 250 248 248 246 240 234 230 227 225 222 217 213 207 199 193 190 186 181 178 177 178 179 177 176 179 182 183 185 187 187 188 188 188 190 192 195 196 196 196 196 194 192 189 190 191 193 196 199 205 211 216 220 223 224 222 222 223 223 224 224 222 221 222 223 226 230
309 305 302 300 297 292 288 284 279 276 272 269 264 259 255 252 250 248 248 246 244 242 239 233 225 217 216 216 212 206 201 196 192 190 186 180 178 178 179 178 177 174 174 178 182 183 186 190 193 195 196 196 197 198 199 199 198 197 197 196 194 193 194 196 198 201 205 211 216 220 224 227 226 223 223 225 225 226 225 224 224 225 228 231 233
309 304 300 298 295 292 287 283 279 274 268 263 257 252 249 247 245 244 243 242 238 233 227 221 213 206 205 205 201 196 193 189 187 185 182 178 178 180 179 177 176 176 178 182 186 187 187 190 194 198 199 199 200 200 200 201 201 199 197 195 195 195 197 199 201 206 212 218 222 226 229 228 226 226 227 228 229 229 228 227 228 230 232 232 235
310 306 302 297 293 289 285 281 278 272 264 257 251 245 243 242 240 238 237 234 230 224 218 212 208 205 204 200 193 189 190 189 185 182 180 180 182 183 180 177 176 178 181 185 187 189 190 191 194 198 200 202 204 206 208 207 203 199 197 195 194 195 197 201 204 209 216 222 226 229 231 228 227 229 231 232 233 233 232 233 234 235 237 240 243
308 306 303 299 294 289 285 281 277 269 260 253 247 241 239 238 235 233 230 226 222 218 213 208 207 206 204 198 190 187 190 191 186 182 180 180 181 182 182 181 180 182 186 188 190 192 195 196 199 202 206 209 211 211 210 205 200 197 197 197 197 199 202 207 212 217 222 227 230 231 230 228 228 229 231 234 236 237 237 239 241 241 244 248 250
305 304 302 299 293 290 287 283 277 269 260 253 246 239 237 236 233 230 226 221 216 212 207 206 206 203 201 198 193 190 191 189 184 180 179 176 175 177 180 181 183 186 189 192 195 199 201 203 204 204 204 205 205 203 201 198 196 197 198 198 201 205 208 213 219 223 226 229 231 231 230 229 229 231 234 237 240 240 241 243 244 246 249 251 252
302 300 298 296 292 289 286 282 279 273 263 254 246 239 237 235 230 225 221 216 212 205 198 196 196 192 190 190 189 189 189 184 179 178 177 175 175 176 177 179 182 186 189 193 196 199 199 198 199 199 198 198 197 195 194 194 195 197 198 199 203 209 214 218 222 225 227 230 231 231 231 231 232 235 238 241 242 242 244 245 246 248 251 253 255
298 294 292 290 289 286 284 281 279 274 264 254 247 241 237 232 226 221 217 211 206 199 191 185 180 177 177 180 183 184 182 178 176 177 177 176 176 176 175 176 179 181 185 188 192 197 200 199 198 197 195 193 192 192 193 194 195 196 199 204 209 214 218 220 222 223 226 228 229 229 230 232 234 237 239 241 242 242 244 246 248 250 254 256 258
293 290 289 287 285 284 282 280 277 271 264 257 250 242 236 229 221 216 211 205 200 196 190 183 177 175 176 178 181 182 179 176 175 176 175 174 173 171 171 173 176 177 180 184 188 195 200 199 194 189 184 182 185 190 193 196 200 204 207 210 214 217 219 221 223 225 226 227 228 230 231 233 236 240 241 242 243 243 244 247 250 252 255 258 259
291 288 287 286 283 282 282 280 276 271 264 257 247 238 230 223 217 210 206 201 196 192 188 183 178 176 176 176 177 178 177 175 174 174 173 171 170 169 169 172 175 178 182 186 188 189 186 182 180 179 179 181 186 189 192 196 200 205 209 212 214 217 219 220 221 222 223 224 226 229 233 235 238 241 243 244 245 246 248 251 254 255 257 258 259
290 285 282 282 281 280 280 278 275 270 262 250 239 230 222 216 211 206 201 197 192 187 183 181 178 177 176 176 177 178 177 174 173 171 170 169 169 169 170 174 178 182 184 185 185 183 178 177 179 182 185 187 189 191 195 199 203 205 208 210 211 211 211 212 213 215 217 221 225 228 232 236 238 241 244 246 249 251 253 254 255 256 257 259 260
290 284 280 280 280 279 279 277 273 267 257 244 233 224 215 209 204 199 196 192 188 183 181 180 180 179 179 179 181 181 179 176 173 170 169 170 173 174 177 179 181 181 180 178 179 179 179 179 181 184 187 191 193 196 200 203 204 206 208 208 209 210 210 211 214 217 220 224 228 229 232 235 237 240 244 247 249 251 253 255 256 258 259 259 260
289 284 281 283 283 280 278 276 271 262 251 239 228 219 211 203 198 193 190 187 183 181 180 181 181 181 181 181 182 180 177 174 172 170 171 174 176 177 178 178 176 175 175 174 175 177 178 179 181 184 188 192 195 198 201 202 202 205 207 207 208 211 212 214 219 222 223 225 227 229 232 235 238 240 244 246 249 252 255 257 258 260 260 260 260
291 286 284 285 284 280 278 275 267 257 245 233 221 212 204 198 193 189 186 183 180 179 180 180 180 181 181 180 178 176 173 172 171 171 171 173 172 172 173 173 172 174 175 175 176 177 179 181 183 186 190 193 196 198 201 203 203 204 206 208 211 214 217 220 223 224 225 227 230 232 235 238 241 243 246 248 251 254 257 258 259 260 259 259 260
296 292 288 286 283 281 278 273 264 252 240 227 214 204 196 192 189 185 181 178 176 176 179 180 180 181 182 180 178 176 175 174 174 173 172 170 169 170 171 171 172 173 174 175 177 180 181 184 187 190 192 196 199 200 201 203 203 204 207 211 215 218 220 222 225 228 230 232 235 238 241 244 246 248 250 251 253 254 256 256 257 258 257 258 260
306 301 296 290 285 281 276 269 258 246 233 219 207 198 191 186 183 180 177 175 173 174 177 179 180 180 181 180 179 179 178 177 176 174 172 170 170 171 172 172 172 173 174 176 179 182 184 187 190 194 196 198 200 200 201 203 204 207 210 214 217 221 224 227 231 234 236 238 241 244 246 248 250 252 253 254 254 255 256 256 255 256 258 259 260